World > North America > United States > Illinois

Sand Ridge, Illinois Regional Weather

Lat: 37.74N, Lon: 89.44W
Wx Zone: ILZ084Web Search
Sand Ridge Weather Warning NWS WEATHER ALERT FOR THE SAND RIDGE, IL AREA - WIND ADVISORY Issued: 1241 PM CDT Sun May 9 2021 Sand Ridge Weather Warning  

If you are on your PC, you can easily pass this page to your phone by scanning the QR Code near the bottom with your camera.

Feedback


°F Click to change Sand Ridge hourly weather to Imperial units.Click to change Sand Ridge hourly weather to Metric units. °C
Sand Ridge Weather Map
UTC Time: 5/9/2021, 22:52
Your Time:

Sand Ridge, IL Regional Weather

Expires:202105092300;;860794
ASUS43 KLOT 092209
RWRIL 

ILLINOIS REGIONAL WEATHER ROUNDUP
NATIONAL WEATHER SERVICE CHICAGO/ROMEOVILLE IL
500 PM CDT SUN MAY 09 2021

NOTE: "FAIR" INDICATES FEW OR NO CLOUDS BELOW 12,000 FEET WITH NO
SIGNIFICANT WEATHER AND/OR OBSTRUCTIONS TO VISIBILITY.

* THESE STATIONS ARE NOT UNDER NWS QUALITY CONTROL. THEY ALSO MAY NOT
  REPORT WEATHER SUCH AS PRECIPITATION OR FOG.


ILZ064>066-069>071-074>076-080>082-084>086-088>090-092>094-092300-
SOUTH-CENTRAL ILLINOIS
  
CITY           SKY/WX    TMP DP  RH WIND       PRES   REMARKS
CARBONDALE     CLOUDY    52  45  77 N18G26    29.91S                  
CAIRO*         CLOUDY    53  48  83 NE15G26   29.88R                  
EFFINGHAM*     CLOUDY    50  43  78 NW14G20   29.96S                  
MARION         CLOUDY    52  45  76 N17G25    29.90S                  
CENTRALIA*     CLOUDY    50  44  81 N16       29.94R                  
SALEM*         CLOUDY    51  45  82 N14       29.94R                  
$$


SKY/WX - Weather  TMP - Temperature  DP - Dew Point  RH - Relative Humidity
WIND - Wind Direction/Speed PRES - Barometric Pressure VSB - Visibility
WCI - Wind Chill Index E13G22 Wind - East Wind 13 mph/Gusts of 22 mph